Location: ?????
(31.8092°N, 35.2590°E)
Time: 04:03:58
(UTC+00:00)

Cosmos 2360 Rocket - Pass Details

Date: 26 October 2021
Orbit: 832 x 846 km, 71.0° (Epoch: 07 December)

Event Time Altitude Azimuth Distance (km) Brightness Sun altitude
Exits shadow 02:56:26 - 324° (NW) 2,976 4.6 -12.1°
Reaches altitude 10° 02:57:55 10° 318° (NW) 2,469 4.2 -11.8°
Maximum altitude 03:02:51 31° 257° (WSW) 1,431 2.9 -10.8°
Drops below altitude 10° 03:07:45 10° 196° (SSW) 2,454 4.5 -9.7°
Sets 03:10:25 0° 187° (S) 3,384 5.4 -9.2°
